Regional Weather Roundup
Issued by NWS

Home | Current Version | Previous Version | Text Only | Print | Product List | Glossary Off
Versions: 1 2 3 4 5 6 7 8 9 10 11 12 13 14 15 16 17 18 19 20 21 22 23 24 25 26 27 28 29 30 31 32 33 34 35 36 37 38 39 40 41 42 43 44 45 46 47 48 49 50

000
ASUS45 KTFX 211604
RWRMT
MONTANA HOURLY WEATHER ROUNDUP
NATIONAL WEATHER SERVICE GREAT FALLS MT
1004 AM MDT TUE OCT 21 2014

NOTE: "FAIR" INDICATES FEW OR NO CLOUDS BELOW 12000 FEET WITH NO
SIGNIFICANT WEATHER AND/OR OBSTRUCTIONS TO VISIBILITY.

* THESE STATIONS ARE NOT UNDER NWS QUALITY CONTROL. THEY DO NOT
   REPORT WEATHER SUCH AS PRECIPITATION OR FOG.

MTZ001>007-043-211700-
WEST OF THE DIVIDE
CITY           SKY/WX    TMP DP  RH WIND       PRES   REMARKS
KALISPELL      LGT RAIN  48  46  93 CALM      29.81R
MISSOULA       LGT RAIN  46  46 100 W8        29.84F
BUTTE          PTSUNNY   57  39  51 SW3       29.74F
MULLAN PASS    LGT RAIN  36  36 100 VRB6      29.87S VSB M1/4 WCI  31
* ESSEX        N/A       40  39  96 N/A        N/A
* LINCOLN      N/A       38  34  86 NE2        N/A
* POLSON       N/A       46  46 100 SE2        N/A
* RONAN APT    CLOUDY    48  46  93 N/A        N/A
* SEELEY LAKE  N/A       44  43  96 W2         N/A
* THOMP F APT  CLOUDY    42  40  93 SE15G26    N/A
$$

MTZ008-052>055-211700-
SOUTHWEST MONTANA
CITY           SKY/WX    TMP DP  RH WIND       PRES   REMARKS
BOZEMAN        CLOUDY    57  39  51 S6        29.74F
DILLON         LGT RAIN  61  39  44 S20G26    29.73R
W YELLOWSTONE  FOG       39  39 100 N5        29.91S WCI  35
* THREE FORKS  PTSUNNY   61  54  78 S14        N/A
* BOULDER HILL N/A       51  33  50 S12        N/A
* MONIDA PASS  N/A       41  41 100 SE22G28    N/A
* RAYNOLDS PAS N/A       44  26  49 S10G16     N/A
* WHITEHALL    N/A       45  40  83 NW3G9      N/A
* WISE RIVER   N/A       41  37  86 W5         N/A
$$

MTZ009>010-012-014-046-048-049-054-211700-
EAST SLOPES AND CENTRAL MONTANA
CITY           SKY/WX    TMP DP  RH WIND       PRES   REMARKS
CUT BANK       CLOUDY    54  41  62 W12       29.71R
GREAT FALLS    CLOUDY    54  36  51 N5        29.67R
HELENA         CLOUDY    52  37  57 W5        29.69F
MALMSTROM AFB  LGT RAIN  52  41  66 W3        29.68R
* CONRAD       CLOUDY    55  43  64 N/A        N/A
* DEARBORN     N/A       53  39  59 NE2        N/A
* EAST GLACIER N/A       45  42  89 NW15       N/A
* MONARCH      N/A       55  33  43 S8         N/A
* PENDROY      N/A       54  38  55 NE9G16     N/A
* ROGERS PASS  N/A       46  35  66 SE8G22     N/A
* SAINT MARY   N/A       52  35  52 S8G21      N/A
* SWEET GRASS  N/A       53  34  49 SE5        N/A
$$

MTZ011-013-016-021-035-040-045-047-050-051-211700-
NORTH CENTRAL MONTANA
CITY           SKY/WX    TMP DP  RH WIND       PRES   REMARKS
HAVRE          PTSUNNY   46  43  89 CALM      29.62F
LEWISTOWN      PTSUNNY   64  39  40 N5        29.69S
* CHINOOK      PTSUNNY   48  39  71 CALM      29.62R
* FORT BENTON  CLOUDY    48  37  66 SW7       29.67R
* CHESTER      N/A       44  31  60 S3         N/A
* DENTON       N/A       58  42  55 S8         N/A
* GEYSER       N/A       61  38  43 NE5G10     N/A
* JUDITH GAP   N/A       52  43  72 SE3G9      N/A
* LOMA         N/A       49  36  61 W6         N/A
$$

MTZ017>020-022>027-061-062-211700-
NORTHEAST MONTANA
CITY           SKY/WX    TMP DP  RH WIND       PRES   REMARKS
GLASGOW        PTCLDY    55  43  64 SE14      29.64F
GLENDIVE       SUNNY     52  43  72 SE3       29.71F
SIDNEY         SUNNY     52  41  66 CALM      29.72F
WOLF POINT     SUNNY     50  43  77 E8        29.68F
* BEAVER HILL  N/A       59  43  56 E3         N/A
* CIRCLE       N/A       57  47  69 N/A        N/A
* LINDSAY DVD  N/A       55  46  72 E4         N/A
* NAVAJO       N/A       52  43  72 SE3        N/A
* SACO         N/A       45  42  89 N/A        N/A
$$

MTZ028>042-056>058-211700-
SOUTHCENTRAL AND SOUTHEAST MONTANA
CITY           SKY/WX    TMP DP  RH WIND       PRES   REMARKS
BAKER          SUNNY     57  43  60 SE12      29.72F
BILLINGS       PTCLDY    57  30  36 SW13      29.72F
LIVINGSTON     CLOUDY    61  39  44 W13       29.77S
MILES CITY     SUNNY     46  37  71 S10       29.69F
* LAUREL APT   PTSUNNY   57  30  36 N/A        N/A
* ROUNDUP APT  PTCLDY    50  34  54 N/A        N/A
* ALZADA       N/A       68  39  35 S12G18     N/A
* HYSHAM       N/A       56  30  37 W9         N/A
* LAME DEER    N/A       67  37  33 S4         N/A
* REED POINT   N/A       41  37  86 NW1        N/A
* ROSCOE HILL  N/A       61  28  29 S8G19      N/A
$$

REGIONAL REPORTS...DAKOTAS
CITY           SKY/WX    TMP DP  RH WIND       PRES   REMARKS
WILLISTON      SUNNY     55  39  55 SE7       29.71F
DICKINSON      SUNNY     54  41  62 SE9       29.72F
BEACH          N/A       57  45  64 S8        29.71F
CROSBY         SUNNY     55  39  55 S8        29.72F
TIOGA          SUNNY     55  41  59 SE10      29.76F
BISMARCK       SUNNY     59  39  48 SE15      29.81F
GRAND FORKS    SUNNY     50  41  71 S17G28    29.99F
FARGO          SUNNY     55  41  59 SE18G32   29.99F
BUFFALO SD     SUNNY     61  45  56 SE5       29.69F
RAPID CITY     SUNNY     64  43  47 SE8       29.83F
$$

REGIONAL REPORTS...WYOMING/IDAHO/WASHINGTON
CITY           SKY/WX    TMP DP  RH WIND       PRES   REMARKS
GILLETTE       SUNNY     66  37  34 SW25G33   29.80F
SHERIDAN       SUNNY     59  39  48 NE5       29.75F
CODY           CLOUDY   N/A N/A N/A SW7       29.82S
YELLOWSTONE LA PTSUNNY   43  39  86 CALM      29.98F
SALMON         CLOUDY    46  43  89 E6        29.84R
MULLAN PASS    LGT RAIN  36  36 100 VRB6      29.87S VSB M1/4 WCI  31
SAND POINT     CLOUDY    50  45  83 SW5       29.87R
SPOKANE        CLOUDY    46  45  96 SW13      29.89R

$$



USA.gov is the U.S. government's official web portal to all federal, state and local government web resources and services.